QPF
0.03 0.02 0.03 0.04 0.03 0.02 0.02 0.03 0.03 0.03 0.03 0.03 0.02 0.01 0.01 0.01 0.01 0.01 0.03 0.05 0.10 0.16 0.14 0.10 0.09 0.09 0.05 0.05 0.05 0.04 0.04 0.04 0.03 0.02 0.02 0.02 0.02 0.03 0.02 0.02 0.03 0.05 0.05
0.03 0.02 0.03 0.05 0.03 0.03 0.03 0.04 0.03 0.03 0.03 0.02 0.02 0.01 0.01 0.01 0.00 0.00 0.01 0.03 0.05 0.09 0.09 0.07 0.08 0.08 0.06 0.05 0.04 0.03 0.02 0.02 0.02 0.03 0.02 0.02 0.02 0.02 0.02 0.04 0.05 0.05 0.05
0.03 0.02 0.02 0.04 0.03 0.03 0.04 0.05 0.04 0.03 0.03 0.02 0.02 0.01 0.01 0.01 0.01 0.01 0.02 0.03 0.03 0.04 0.06 0.08 0.09 0.08 0.05 0.05 0.04 0.04 0.04 0.03 0.02 0.03 0.02 0.02 0.02 0.02 0.03 0.06 0.09 0.09 0.04
0.03 0.02 0.02 0.03 0.03 0.03 0.05 0.05 0.04 0.03 0.02 0.02 0.02 0.02 0.02 0.02 0.02 0.02 0.02 0.02 0.01 0.02 0.02 0.04 0.06 0.05 0.04 0.05 0.06 0.06 0.06 0.05 0.04 0.04 0.03 0.02 0.02 0.02 0.03 0.07 0.12 0.13 0.05
0.03 0.04 0.04 0.04 0.05 0.05 0.05 0.04 0.04 0.03 0.02 0.01 0.01 0.02 0.02 0.03 0.03 0.02 0.02 0.02 0.01 0.01 0.01 0.01 0.02 0.02 0.02 0.03 0.05 0.06 0.08 0.07 0.06 0.06 0.06 0.04 0.04 0.03 0.04 0.06 0.10 0.09 0.05
0.03 0.03 0.03 0.03 0.04 0.04 0.03 0.04 0.03 0.02 0.02 0.01 0.02 0.03 0.03 0.03 0.02 0.02 0.02 0.02 0.01 0.01 0.01 0.01 0.01 0.01 0.01 0.02 0.03 0.05 0.06 0.07 0.10 0.11 0.09 0.07 0.08 0.07 0.07 0.06 0.06 0.05 0.03
0.03 0.03 0.04 0.03 0.04 0.04 0.03 0.02 0.02 0.02 0.03 0.02 0.02 0.02 0.02 0.02 0.02 0.01 0.01 0.01 0.01 0.01 0.01 0.01 0.01 0.01 0.01 0.01 0.02 0.04 0.06 0.07 0.08 0.08 0.07 0.06 0.09 0.08 0.07 0.07 0.06 0.05 0.05
0.02 0.02 0.03 0.04 0.04 0.04 0.04 0.04 0.02 0.02 0.02 0.02 0.01 0.01 0.02 0.02 0.01 0.01 0.01 0.01 0.01 0.01 0.00 0.00 0.00 0.01 0.01 0.01 0.01 0.02 0.03 0.04 0.04 0.04 0.04 0.04 0.06 0.07 0.08 0.09 0.10 0.08 0.07
0.02 0.03 0.03 0.03 0.04 0.04 0.05 0.05 0.03 0.03 0.03 0.01 0.01 0.01 0.01 0.01 0.01 0.01 0.01 0.01 0.01 0.01 0.01 0.00 0.00 0.00 0.00 0.01 0.01 0.01 0.01 0.02 0.03 0.03 0.03 0.03 0.03 0.05 0.07 0.09 0.08 0.07 0.07
0.04 0.03 0.03 0.03 0.03 0.04 0.06 0.07 0.06 0.04 0.04 0.02 0.01 0.01 0.01 0.01 0.01 0.01 0.01 0.01 0.00 0.00 0.00 0.00 0.00 0.00 0.00 0.01 0.01 0.00 0.00 0.01 0.02 0.03 0.03 0.03 0.04 0.05 0.05 0.06 0.07 0.07 0.06
0.07 0.06 0.04 0.04 0.04 0.04 0.04 0.06 0.08 0.04 0.03 0.02 0.01 0.01 0.01 0.01 0.01 0.01 0.01 0.01 0.01 0.00 0.00 0.00 0.00 0.00 0.00 0.00 0.01 0.00 0.00 0.00 0.01 0.01 0.02 0.03 0.05 0.06 0.05 0.06 0.06 0.06 0.06
0.07 0.07 0.07 0.06 0.07 0.05 0.03 0.04 0.06 0.04 0.02 0.02 0.01 0.01 0.02 0.03 0.02 0.01 0.01 0.02 0.02 0.02 0.01 0.00 0.00 0.00 0.00 0.00 0.00 0.00 0.00 0.00 0.00 0.00 0.01 0.02 0.08 0.12 0.05 0.05 0.07 0.07 0.06
0.06 0.06 0.06 0.06 0.06 0.06 0.04 0.04 0.04 0.03 0.02 0.02 0.02 0.02 0.02 0.02 0.02 0.02 0.02 0.02 0.01 0.02 0.02 0.01 0.00 0.00 0.00 0.00 0.01 0.00 0.00 0.00 0.00 0.00 0.00 0.01 0.05 0.19 0.14 0.07 0.09 0.11 0.13
0.07 0.06 0.05 0.05 0.06 0.06 0.05 0.05 0.04 0.04 0.03 0.02 0.02 0.01 0.01 0.01 0.01 0.01 0.02 0.01 0.01 0.01 0.02 0.01 0.00 0.00 0.00 0.00 0.00 0.01 0.01 0.00 0.00 0.00 0.00 0.01 0.03 0.12 0.22 0.18 0.19 0.20 0.19
0.05 0.07 0.05 0.04 0.05 0.06 0.05 0.05 0.04 0.03 0.02 0.02 0.02 0.02 0.02 0.02 0.01 0.00 0.01 0.01 0.01 0.02 0.02 0.01 0.00 0.00 0.00 0.01 0.02 0.02 0.02 0.01 0.00 0.00 0.00 0.00 0.01 0.04 0.11 0.17 0.20 0.17 0.12
0.04 0.05 0.04 0.03 0.04 0.04 0.05 0.05 0.04 0.03 0.03 0.02 0.02 0.03 0.03 0.03 0.03 0.02 0.02 0.01 0.01 0.02 0.02 0.01 0.01 0.00 0.01 0.02 0.03 0.02 0.02 0.02 0.01 0.01 0.01 0.00 0.01 0.02 0.05 0.09 0.10 0.09 0.07
0.04 0.03 0.02 0.02 0.03 0.03 0.04 0.05 0.04 0.03 0.02 0.02 0.03 0.03 0.03 0.03 0.03 0.03 0.03 0.02 0.01 0.01 0.01 0.01 0.01 0.01 0.01 0.03 0.04 0.03 0.03 0.03 0.03 0.03 0.02 0.01 0.02 0.03 0.03 0.04 0.05 0.05 0.04
0.03 0.03 0.02 0.02 0.02 0.02 0.02 0.04 0.04 0.03 0.02 0.02 0.02 0.03 0.02 0.02 0.02 0.02 0.03 0.02 0.01 0.01 0.01 0.01 0.01 0.01 0.02 0.02 0.03 0.04 0.04 0.04 0.03 0.03 0.02 0.03 0.03 0.06 0.05 0.02 0.03 0.03 0.03
0.03 0.03 0.02 0.01 0.02 0.01 0.02 0.03 0.03 0.03 0.02 0.02 0.02 0.02 0.02 0.02 0.03 0.03 0.03 0.02 0.01 0.01 0.01 0.01 0.01 0.01 0.03 0.04 0.05 0.05 0.05 0.04 0.02 0.02 0.02 0.03 0.05 0.09 0.07 0.03 0.01 0.01 0.01
0.02 0.02 0.02 0.01 0.01 0.02 0.02 0.02 0.02 0.02 0.02 0.02 0.02 0.02 0.02 0.03 0.02 0.03 0.03 0.02 0.02 0.02 0.02 0.01 0.01 0.02 0.03 0.04 0.05 0.06 0.06 0.04 0.03 0.02 0.02 0.03 0.05 0.06 0.05 0.03 0.01 0.01 0.00
0.02 0.02 0.02 0.01 0.01 0.02 0.02 0.01 0.02 0.02 0.01 0.02 0.02 0.02 0.02 0.02 0.03 0.03 0.03 0.03 0.03 0.03 0.03 0.03 0.03 0.03 0.03 0.03 0.04 0.06 0.06 0.05 0.03 0.03 0.02 0.03 0.03 0.02 0.02 0.03 0.02 0.01 0.01
0.02 0.02 0.02 0.01 0.01 0.01 0.02 0.02 0.02 0.01 0.01 0.01 0.01 0.01 0.01 0.02 0.03 0.03 0.03 0.03 0.03 0.03 0.03 0.03 0.03 0.03 0.02 0.03 0.03 0.04 0.03 0.03 0.03 0.02 0.02 0.01 0.01 0.01 0.01 0.02 0.02 0.02 0.01
0.02 0.01 0.01 0.01 0.01 0.01 0.02 0.03 0.02 0.01 0.01 0.01 0.02 0.02 0.02 0.02 0.02 0.02 0.03 0.03 0.03 0.03 0.02 0.02 0.02 0.02 0.02 0.01 0.02 0.02 0.02 0.01 0.01 0.01 0.01 0.01 0.00 0.00 0.01 0.01 0.01 0.01 0.01
0.02 0.02 0.01 0.01 0.01 0.01 0.01 0.01 0.01 0.01 0.01 0.01 0.01 0.01 0.02 0.02 0.03 0.03 0.03 0.03 0.03 0.03 0.02 0.02 0.01 0.01 0.01 0.02 0.03 0.03 0.02 0.02 0.01 0.01 0.01 0.00 0.00 0.01 0.01 0.00 0.00 0.00 0.01
0.01 0.01 0.01 0.01 0.01 0.02 0.02 0.02 0.02 0.01 0.01 0.01 0.01 0.01 0.01 0.01 0.03 0.03 0.03 0.03 0.03 0.03 0.03 0.02 0.02 0.01 0.01 0.02 0.02 0.03 0.03 0.02 0.01 0.01 0.00 0.00 0.00 0.00 0.00 0.00 0.00 0.00 0.00
0.01 0.01 0.01 0.01 0.01 0.02 0.02 0.02 0.02 0.01 0.01 0.01 0.01 0.02 0.03 0.03 0.03 0.02 0.02 0.02 0.02 0.01 0.02 0.02 0.02 0.02 0.02 0.02 0.02 0.02 0.02 0.02 0.01 0.01 0.00 0.00 0.00 0.00 0.00 0.00 0.00 0.00 0.00
MSLP
1017.87 1017.76 1017.67 1017.62 1017.64 1017.74 1017.94 1018.21 1018.53 1018.87 1019.19 1019.46 1019.67 1019.83 1019.93 1020.01 1020.07 1020.14 1020.20 1020.27 1020.33 1020.35 1020.34 1020.29 1020.22 1020.12 1020.03 1019.95 1019.89 1019.84 1019.79 1019.74 1019.66 1019.55 1019.42 1019.27 1019.11 1018.94 1018.78 1018.61 1018.41 1018.18 1017.91
1017.97 1017.83 1017.72 1017.70 1017.77 1017.97 1018.28 1018.68 1019.12 1019.58 1020.00 1020.34 1020.61 1020.78 1020.89 1020.94 1020.96 1020.97 1020.98 1020.99 1020.99 1020.98 1020.94 1020.87 1020.79 1020.69 1020.60 1020.52 1020.46 1020.40 1020.34 1020.26 1020.17 1020.05 1019.91 1019.75 1019.59 1019.43 1019.27 1019.11 1018.93 1018.71 1018.45
1018.03 1017.85 1017.75 1017.76 1017.90 1018.20 1018.62 1019.14 1019.72 1020.29 1020.81 1021.24 1021.56 1021.77 1021.88 1021.92 1021.91 1021.88 1021.83 1021.78 1021.72 1021.66 1021.57 1021.48 1021.38 1021.28 1021.18 1021.10 1021.03 1020.96 1020.89 1020.81 1020.71 1020.58 1020.43 1020.28 1020.12 1019.96 1019.81 1019.67 1019.50 1019.31 1019.07
1018.06 1017.86 1017.77 1017.82 1018.03 1018.41 1018.93 1019.56 1020.25 1020.92 1021.53 1022.03 1022.41 1022.66 1022.80 1022.85 1022.83 1022.77 1022.69 1022.60 1022.50 1022.39 1022.27 1022.14 1022.01 1021.89 1021.78 1021.69 1021.62 1021.55 1021.48 1021.39 1021.29 1021.16 1021.01 1020.86 1020.70 1020.55 1020.40 1020.26 1020.11 1019.94 1019.73
1018.10 1017.91 1017.83 1017.91 1018.17 1018.61 1019.20 1019.90 1020.65 1021.39 1022.06 1022.62 1023.05 1023.35 1023.53 1023.62 1023.63 1023.59 1023.51 1023.41 1023.29 1023.15 1023.01 1022.86 1022.71 1022.57 1022.44 1022.35 1022.26 1022.19 1022.12 1022.04 1021.94 1021.81 1021.66 1021.50 1021.34 1021.18 1021.04 1020.90 1020.76 1020.60 1020.42
1018.21 1018.02 1017.96 1018.06 1018.35 1018.81 1019.43 1020.14 1020.91 1021.66 1022.35 1022.94 1023.41 1023.76 1024.00 1024.15 1024.23 1024.24 1024.22 1024.15 1024.06 1023.93 1023.79 1023.63 1023.47 1023.32 1023.20 1023.09 1023.00 1022.93 1022.86 1022.78 1022.68 1022.56 1022.41 1022.24 1022.06 1021.89 1021.72 1021.57 1021.42 1021.27 1021.10
1018.42 1018.24 1018.19 1018.30 1018.59 1019.04 1019.63 1020.31 1021.03 1021.75 1022.41 1022.99 1023.48 1023.88 1024.18 1024.42 1024.59 1024.70 1024.76 1024.78 1024.75 1024.68 1024.58 1024.45 1024.30 1024.16 1024.04 1023.93 1023.85 1023.78 1023.71 1023.64 1023.54 1023.41 1023.25 1023.06 1022.86 1022.66 1022.47 1022.29 1022.12 1021.96 1021.78
1018.75 1018.59 1018.55 1018.67 1018.93 1019.34 1019.86 1020.45 1021.08 1021.70 1022.29 1022.83 1023.31 1023.73 1024.10 1024.42 1024.70 1024.94 1025.13 1025.26 1025.34 1025.36 1025.33 1025.26 1025.16 1025.05 1024.94 1024.85 1024.78 1024.72 1024.66 1024.58 1024.48 1024.34 1024.17 1023.97 1023.74 1023.50 1023.27 1023.04 1022.84 1022.65 1022.47
1019.22 1019.08 1019.06 1019.17 1019.40 1019.73 1020.16 1020.63 1021.13 1021.62 1022.10 1022.56 1023.00 1023.42 1023.84 1024.24 1024.62 1024.99 1025.31 1025.58 1025.79 1025.92 1025.99 1026.01 1025.98 1025.92 1025.86 1025.80 1025.74 1025.70 1025.64 1025.57 1025.47 1025.33 1025.14 1024.91 1024.65 1024.38 1024.10 1023.83 1023.59 1023.36 1023.15
1019.80 1019.70 1019.70 1019.80 1019.99 1020.25 1020.56 1020.90 1021.25 1021.60 1021.96 1022.31 1022.68 1023.08 1023.50 1023.96 1024.42 1024.89 1025.33 1025.73 1026.07 1026.33 1026.51 1026.63 1026.68 1026.70 1026.70 1026.68 1026.67 1026.64 1026.60 1026.54 1026.44 1026.29 1026.09 1025.84 1025.56 1025.25 1024.94 1024.63 1024.34 1024.08 1023.83
1020.46 1020.41 1020.44 1020.53 1020.69 1020.88 1021.09 1021.30 1021.51 1021.72 1021.94 1022.19 1022.47 1022.82 1023.23 1023.69 1024.20 1024.73 1025.26 1025.75 1026.19 1026.56 1026.85 1027.07 1027.22 1027.33 1027.39 1027.44 1027.46 1027.47 1027.45 1027.40 1027.31 1027.16 1026.97 1026.71 1026.42 1026.09 1025.75 1025.41 1025.09 1024.78 1024.50
1021.16 1021.16 1021.22 1021.33 1021.46 1021.60 1021.73 1021.84 1021.93 1022.02 1022.12 1022.27 1022.47 1022.74 1023.10 1023.54 1024.04 1024.59 1025.15 1025.69 1026.19 1026.64 1027.01 1027.32 1027.56 1027.75 1027.89 1028.00 1028.08 1028.12 1028.14 1028.11 1028.04 1027.91 1027.72 1027.48 1027.19 1026.86 1026.51 1026.16 1025.81 1025.47 1025.14
1021.86 1021.91 1022.01 1022.13 1022.25 1022.36 1022.44 1022.48 1022.50 1022.51 1022.52 1022.58 1022.70 1022.90 1023.19 1023.57 1024.02 1024.53 1025.06 1025.60 1026.12 1026.59 1027.02 1027.39 1027.71 1027.97 1028.19 1028.36 1028.50 1028.59 1028.65 1028.65 1028.61 1028.50 1028.34 1028.12 1027.86 1027.55 1027.21 1026.85 1026.49 1026.13 1025.77
1022.52 1022.62 1022.75 1022.89 1023.02 1023.12 1023.18 1023.20 1023.18 1023.14 1023.11 1023.11 1023.17 1023.31 1023.52 1023.81 1024.18 1024.60 1025.07 1025.55 1026.03 1026.50 1026.94 1027.35 1027.71 1028.03 1028.31 1028.55 1028.74 1028.89 1028.99 1029.03 1029.02 1028.96 1028.83 1028.65 1028.42 1028.15 1027.84 1027.50 1027.14 1026.76 1026.37
1023.13 1023.27 1023.43 1023.60 1023.74 1023.85 1023.91 1023.93 1023.91 1023.88 1023.84 1023.82 1023.84 1023.92 1024.06 1024.26 1024.53 1024.85 1025.21 1025.60 1026.01 1026.43 1026.85 1027.26 1027.65 1028.01 1028.34 1028.64 1028.88 1029.07 1029.21 1029.30 1029.33 1029.30 1029.22 1029.09 1028.91 1028.68 1028.41 1028.10 1027.75 1027.37 1026.97
1023.70 1023.87 1024.05 1024.23 1024.39 1024.51 1024.60 1024.64 1024.65 1024.65 1024.63 1024.62 1024.64 1024.68 1024.77 1024.89 1025.05 1025.26 1025.50 1025.79 1026.10 1026.45 1026.83 1027.21 1027.61 1027.99 1028.36 1028.68 1028.97 1029.20 1029.38 1029.50 1029.56 1029.57 1029.53 1029.44 1029.31 1029.14 1028.91 1028.64 1028.32 1027.96 1027.55
1024.25 1024.44 1024.63 1024.81 1024.98 1025.11 1025.22 1025.30 1025.36 1025.40 1025.43 1025.45 1025.48 1025.52 1025.57 1025.63 1025.71 1025.81 1025.95 1026.12 1026.35 1026.61 1026.93 1027.28 1027.66 1028.04 1028.42 1028.77 1029.07 1029.33 1029.53 1029.67 1029.75 1029.79 1029.79 1029.74 1029.65 1029.52 1029.35 1029.13 1028.85 1028.52 1028.12
1024.80 1024.99 1025.18 1025.36 1025.52 1025.67 1025.80 1025.91 1026.01 1026.10 1026.18 1026.25 1026.31 1026.36 1026.39 1026.42 1026.44 1026.47 1026.52 1026.60 1026.74 1026.93 1027.19 1027.49 1027.84 1028.20 1028.57 1028.92 1029.23 1029.48 1029.68 1029.83 1029.92 1029.97 1029.98 1029.96 1029.91 1029.82 1029.70 1029.53 1029.30 1029.01 1028.66
1025.37 1025.56 1025.74 1025.90 1026.06 1026.20 1026.33 1026.47 1026.59 1026.72 1026.85 1026.96 1027.06 1027.14 1027.18 1027.20 1027.19 1027.17 1027.17 1027.19 1027.26 1027.39 1027.59 1027.84 1028.15 1028.48 1028.82 1029.14 1029.43 1029.66 1029.84 1029.97 1030.05 1030.09 1030.11 1030.10 1030.07 1030.02 1029.94 1029.82 1029.65 1029.42 1029.13
1025.94 1026.13 1026.30 1026.45 1026.59 1026.71 1026.84 1026.98 1027.12 1027.27 1027.43 1027.58 1027.72 1027.82 1027.89 1027.92 1027.91 1027.88 1027.85 1027.84 1027.87 1027.95 1028.10 1028.31 1028.56 1028.85 1029.14 1029.42 1029.66 1029.85 1029.99 1030.09 1030.14 1030.16 1030.16 1030.15 1030.13 1030.10 1030.06 1029.99 1029.88 1029.72 1029.50
1026.49 1026.68 1026.84 1026.98 1027.10 1027.21 1027.33 1027.45 1027.59 1027.75 1027.92 1028.10 1028.26 1028.40 1028.50 1028.56 1028.57 1028.55 1028.53 1028.51 1028.52 1028.57 1028.68 1028.83 1029.04 1029.27 1029.50 1029.71 1029.90 1030.03 1030.12 1030.16 1030.17 1030.16 1030.14 1030.11 1030.10 1030.09 1030.07 1030.04 1029.99 1029.89 1029.75
1026.97 1027.17 1027.34 1027.47 1027.59 1027.68 1027.78 1027.88 1028.01 1028.16 1028.34 1028.52 1028.71 1028.87 1029.00 1029.10 1029.15 1029.16 1029.15 1029.14 1029.15 1029.19 1029.26 1029.38 1029.53 1029.69 1029.86 1030.01 1030.12 1030.19 1030.22 1030.21 1030.17 1030.12 1030.07 1030.03 1030.01 1030.00 1030.00 1030.01 1030.00 1029.96 1029.88
1027.35 1027.57 1027.75 1027.89 1028.00 1028.09 1028.18 1028.27 1028.38 1028.52 1028.68 1028.87 1029.06 1029.25 1029.41 1029.54 1029.63 1029.68 1029.71 1029.72 1029.73 1029.76 1029.82 1029.89 1029.99 1030.09 1030.19 1030.27 1030.32 1030.33 1030.31 1030.25 1030.17 1030.09 1030.01 1029.95 1029.91 1029.90 1029.90 1029.92 1029.94 1029.94 1029.91
1027.57 1027.82 1028.03 1028.20 1028.32 1028.42 1028.50 1028.58 1028.68 1028.80 1028.96 1029.14 1029.34 1029.54 1029.72 1029.88 1030.01 1030.10 1030.16 1030.20 1030.23 1030.26 1030.29 1030.33 1030.39 1030.44 1030.48 1030.51 1030.50 1030.46 1030.40 1030.31 1030.20 1030.09 1029.99 1029.91 1029.86 1029.83 1029.83 1029.85 1029.87 1029.88 1029.87
1027.62 1027.92 1028.17 1028.36 1028.52 1028.63 1028.72 1028.80 1028.90 1029.02 1029.16 1029.34 1029.54 1029.75 1029.95 1030.13 1030.29 1030.41 1030.50 1030.56 1030.60 1030.63 1030.65 1030.67 1030.69 1030.70 1030.70 1030.69 1030.65 1030.59 1030.50 1030.39 1030.27 1030.16 1030.05 1029.96 1029.89 1029.84 1029.82 1029.81 1029.81 1029.80 1029.78
1027.52 1027.86 1028.15 1028.39 1028.57 1028.72 1028.83 1028.93 1029.03 1029.15 1029.29 1029.46 1029.66 1029.87 1030.07 1030.27 1030.45 1030.59 1030.70 1030.77 1030.82 1030.85 1030.87 1030.87 1030.87 1030.86 1030.84 1030.80 1030.75 1030.68 1030.59 1030.49 1030.38 1030.27 1030.16 1030.07 1029.99 1029.92 1029.86 1029.82 1029.77 1029.73 1029.67
Thickness
5735 5734 5732 5730 5729 5728 5727 5726 5726 5726 5725 5725 5724 5724 5724 5722 5722 5720 5717 5714 5713 5713 5713 5713 5713 5712 5712 5712 5712 5711 5711 5710 5710 5710 5710 5710 5711 5711 5712 5712 5712 5713 5713
5732 5730 5730 5727 5726 5724 5724 5723 5723 5721 5721 5720 5719 5718 5717 5717 5717 5716 5714 5712 5709 5708 5708 5708 5708 5708 5708 5707 5707 5707 5706 5706 5706 5706 5706 5706 5706 5707 5707 5708 5708 5708 5708
5729 5728 5727 5725 5723 5721 5720 5720 5719 5717 5716 5715 5714 5713 5712 5712 5712 5712 5710 5709 5707 5704 5703 5703 5703 5703 5703 5703 5703 5703 5702 5702 5702 5702 5701 5701 5702 5702 5703 5703 5704 5704 5704
5726 5724 5723 5721 5719 5717 5716 5715 5714 5713 5712 5711 5710 5709 5708 5706 5707 5707 5706 5705 5703 5702 5700 5698 5698 5698 5698 5699 5699 5698 5698 5698 5698 5697 5697 5697 5697 5697 5698 5699 5701 5701 5700
5723 5721 5719 5717 5716 5714 5712 5711 5710 5709 5707 5705 5705 5704 5704 5703 5702 5702 5702 5701 5699 5698 5697 5694 5693 5693 5693 5694 5694 5694 5694 5694 5693 5693 5693 5692 5693 5693 5693 5694 5695 5695 5695
5719 5717 5715 5714 5712 5710 5708 5706 5704 5703 5702 5701 5701 5700 5699 5699 5698 5697 5697 5696 5695 5694 5693 5692 5691 5689 5688 5688 5688 5688 5689 5689 5689 5689 5688 5688 5688 5688 5689 5689 5689 5690 5689
5715 5713 5711 5710 5707 5706 5704 5703 5701 5699 5698 5698 5696 5694 5695 5695 5694 5692 5691 5691 5691 5689 5688 5688 5687 5687 5685 5683 5682 5683 5683 5683 5683 5683 5683 5683 5683 5683 5683 5684 5684 5683 5683
5711 5709 5709 5707 5704 5701 5700 5699 5697 5695 5694 5694 5693 5691 5688 5687 5686 5687 5686 5686 5686 5685 5684 5683 5683 5682 5681 5680 5678 5677 5677 5678 5678 5678 5678 5678 5678 5678 5678 5678 5678 5677 5677
5707 5706 5705 5703 5701 5700 5697 5696 5694 5692 5690 5690 5692 5688 5684 5681 5681 5682 5682 5682 5680 5680 5679 5678 5678 5677 5676 5675 5674 5671 5671 5672 5672 5673 5673 5673 5673 5673 5673 5672 5672 5672 5671
5703 5702 5701 5700 5698 5697 5695 5693 5692 5690 5687 5685 5686 5686 5687 5683 5679 5675 5677 5678 5676 5675 5674 5673 5672 5672 5671 5669 5667 5665 5665 5665 5666 5666 5667 5667 5667 5667 5667 5667 5666 5666 5665
5700 5699 5698 5697 5696 5694 5692 5690 5688 5687 5686 5683 5683 5683 5681 5679 5681 5676 5670 5671 5671 5671 5670 5668 5667 5667 5665 5664 5662 5660 5659 5659 5659 5660 5660 5660 5661 5661 5661 5661 5660 5660 5660
5697 5696 5694 5694 5693 5691 5690 5687 5685 5684 5683 5682 5681 5681 5678 5676 5675 5674 5670 5668 5666 5666 5665 5663 5663 5661 5660 5659 5656 5654 5653 5653 5653 5653 5653 5654 5654 5654 5654 5654 5654 5654 5654
5695 5694 5692 5691 5690 5688 5687 5685 5683 5682 5681 5679 5678 5678 5678 5676 5675 5672 5669 5666 5663 5662 5661 5660 5658 5657 5656 5654 5652 5649 5648 5647 5647 5647 5647 5647 5647 5647 5647 5648 5648 5647 5647
5693 5691 5690 5689 5687 5685 5684 5682 5681 5679 5678 5677 5676 5675 5674 5673 5672 5670 5667 5664 5660 5659 5658 5656 5654 5652 5651 5649 5647 5645 5644 5642 5641 5640 5640 5640 5640 5639 5640 5640 5640 5639 5638
5691 5689 5688 5686 5684 5682 5680 5679 5677 5676 5675 5674 5673 5672 5671 5670 5669 5668 5667 5664 5660 5656 5654 5653 5651 5648 5646 5644 5642 5642 5640 5637 5635 5634 5634 5633 5633 5632 5632 5632 5632 5631 5630
5688 5686 5685 5684 5681 5679 5678 5676 5674 5673 5671 5670 5668 5668 5668 5668 5667 5665 5663 5662 5660 5658 5653 5651 5647 5645 5642 5640 5637 5637 5634 5631 5630 5628 5627 5627 5626 5625 5625 5624 5623 5623 5623
5684 5683 5681 5680 5678 5676 5674 5672 5671 5670 5668 5667 5667 5666 5664 5664 5663 5661 5660 5658 5656 5655 5650 5646 5643 5640 5637 5635 5633 5631 5630 5628 5625 5623 5621 5620 5619 5618 5617 5617 5616 5615 5614
5680 5679 5678 5676 5674 5672 5670 5669 5667 5666 5665 5664 5664 5663 5661 5660 5659 5658 5656 5654 5652 5651 5647 5641 5638 5635 5633 5631 5629 5626 5625 5623 5621 5618 5616 5615 5613 5612 5610 5610 5609 5608 5607
5675 5674 5673 5672 5670 5668 5667 5665 5664 5663 5663 5662 5661 5660 5659 5657 5656 5654 5652 5651 5649 5647 5643 5639 5635 5631 5629 5626 5624 5622 5620 5618 5617 5614 5611 5609 5607 5606 5605 5604 5602 5601 5600
5670 5670 5669 5667 5666 5664 5662 5661 5660 5660 5659 5658 5657 5656 5656 5654 5653 5651 5649 5647 5645 5642 5639 5636 5632 5628 5625 5622 5620 5618 5616 5614 5612 5610 5607 5604 5602 5600 5599 5598 5597 5595 5594
5665 5665 5664 5663 5661 5659 5658 5657 5656 5655 5654 5653 5652 5651 5650 5648 5647 5645 5645 5643 5641 5639 5635 5632 5629 5626 5623 5619 5617 5616 5613 5610 5608 5606 5603 5601 5599 5597 5595 5593 5591 5590 5588
5659 5658 5658 5657 5655 5654 5650 5648 5649 5649 5650 5649 5647 5646 5645 5642 5640 5638 5637 5636 5635 5635 5633 5630 5628 5625 5623 5619 5616 5613 5610 5608 5605 5602 5599 5597 5596 5594 5592 5590 5587 5585 5583
5653 5652 5651 5650 5649 5647 5644 5642 5641 5644 5644 5644 5643 5642 5640 5639 5637 5636 5633 5630 5629 5628 5627 5628 5626 5624 5621 5618 5614 5610 5607 5605 5602 5599 5595 5595 5593 5591 5589 5586 5583 5580 5578
5648 5646 5646 5645 5643 5641 5638 5636 5636 5638 5639 5638 5637 5637 5635 5635 5633 5632 5630 5629 5627 5625 5623 5622 5622 5620 5618 5615 5610 5607 5604 5600 5598 5593 5590 5590 5590 5588 5586 5583 5579 5576 5574
5643 5641 5640 5639 5637 5636 5633 5631 5630 5633 5633 5633 5632 5631 5630 5629 5626 5624 5625 5624 5623 5620 5617 5615 5614 5613 5610 5607 5604 5602 5599 5596 5594 5591 5588 5586 5586 5584 5583 5581 5577 5573 5571
5637 5636 5634 5634 5633 5632 5628 5626 5625 5627 5627 5627 5625 5625 5622 5621 5619 5618 5620 5620 5619 5618 5615 5612 5609 5607 5605 5602 5599 5598 5596 5593 5592 5589 5586 5582 5582 5580 5580 5579 5575 5572 5569